• Em Portugal
  • Lista de países
  • Para 7 dias
  • Temperatura da água
  • Mapas de satélite
  • Mapa do tempo
  • Widgets de tempo
  • user-avatar
    Iniciar Sessão

    Previsão horária em Lisboa

    Hoje, 15 Dezembro, Sexta-feira

    Tempo Temperatura Precipitação Vento Pressão Humidade
    00:00 +14°C° 0,1 mm 4 m/s 760 mmHg 96%
    01:00 +14°C° 0,1 mm 4 m/s 760 mmHg 96%
    02:00 +14°C° 0,1 mm 4 m/s 759 mmHg 96%
    03:00 +14°C° 0,1 mm 4 m/s 759 mmHg 96%
    04:00 +14°C° 0,1 mm 5 m/s 759 mmHg 96%
    05:00 +14°C° 0 mm 4 m/s 758 mmHg 96%
    06:00 +14°C° 0,1 mm 4 m/s 758 mmHg 96%
    07:00 +14°C° 0,1 mm 4 m/s 758 mmHg 95%
    08:00 +15°C° 0,1 mm 4 m/s 758 mmHg 95%
    09:00 +15°C° 0,1 mm 5 m/s 758 mmHg 92%
    10:00 +16°C° 0,1 mm 5 m/s 758 mmHg 88%
    11:00 +16°C° 0 mm 5 m/s 758 mmHg 87%
    12:00 +16°C° 0,1 mm 5 m/s 758 mmHg 84%
    13:00 +16°C° 0,1 mm 6 m/s 758 mmHg 81%
    14:00 +15°C° 0,1 mm 7 m/s 758 mmHg 79%
    15:00 +14°C° 0 mm 7 m/s 758 mmHg 78%
    16:00 +12°C° 0 mm 7 m/s 758 mmHg 78%
    17:00 +10°C° 0 mm 7 m/s 758 mmHg 77%
    18:00 +10°C° 0 mm 7 m/s 759 mmHg 76%
    19:00 +9°C° 0 mm 7 m/s 759 mmHg 75%
    20:00 +9°C° 0 mm 7 m/s 760 mmHg 74%
    21:00 +8°C° 0 mm 7 m/s 760 mmHg 74%
    22:00 +8°C° 0 mm 7 m/s 760 mmHg 74%
    23:00 +8°C° 0 mm 7 m/s 761 mmHg 74%

    Amanhã, 16 Dezembro, Sábado

    Tempo Temperatura Precipitação Vento Pressão Humidade
    00:00 +7°C° 0 mm 6 m/s 761 mmHg 74%
    01:00 +7°C° 0 mm 6 m/s 761 mmHg 75%
    02:00 +7°C° 0 mm 6 m/s 761 mmHg 75%
    03:00 +5°C° 0 mm 6 m/s 761 mmHg 75%
    04:00 +5°C° 0 mm 6 m/s 761 mmHg 75%
    05:00 +5°C° 0 mm 6 m/s 762 mmHg 75%
    06:00 +5°C° 0 mm 6 m/s 762 mmHg 74%
    07:00 +5°C° 0 mm 6 m/s 763 mmHg 72%
    08:00 +7°C° 0 mm 6 m/s 763 mmHg 71%
    09:00 +8°C° 0 mm 6 m/s 763 mmHg 63%
    10:00 +10°C° 0 mm 6 m/s 764 mmHg 56%
    11:00 +13°C° 0 mm 6 m/s 764 mmHg 48%
    12:00 +13°C° 0 mm 6 m/s 764 mmHg 45%
    13:00 +14°C° 0 mm 6 m/s 764 mmHg 43%
    14:00 +14°C° 0 mm 6 m/s 764 mmHg 40%
    15:00 +13°C° 0 mm 6 m/s 764 mmHg 45%
    16:00 +10°C° 0 mm 5 m/s 764 mmHg 50%
    17:00 +9°C° 0 mm 5 m/s 765 mmHg 55%
    18:00 +8°C° 0 mm 5 m/s 765 mmHg 59%
    19:00 +8°C° 0 mm 5 m/s 766 mmHg 62%
    20:00 +7°C° 0 mm 5 m/s 766 mmHg 65%
    21:00 +7°C° 0 mm 5 m/s 766 mmHg 66%
    22:00 +6°C° 0 mm 5 m/s 767 mmHg 66%
    23:00 +6°C° 0 mm 5 m/s 767 mmHg 67%

    Depois de amanhã, 17 Dezembro, Domingo

    Tempo Temperatura Precipitação Vento Pressão Humidade
    00:00 +5°C° 0 mm 5 m/s 767 mmHg 67%
    01:00 +5°C° 0 mm 4 m/s 767 mmHg 68%
    02:00 +5°C° 0 mm 4 m/s 767 mmHg 68%
    03:00 +4°C° 0 mm 4 m/s 767 mmHg 69%
    04:00 +4°C° 0 mm 4 m/s 767 mmHg 69%
    05:00 +4°C° 0 mm 4 m/s 767 mmHg 69%
    06:00 +4°C° 0 mm 4 m/s 768 mmHg 67%
    07:00 +4°C° 0 mm 4 m/s 768 mmHg 65%
    08:00 +5°C° 0 mm 4 m/s 769 mmHg 63%
    09:00 +8°C° 0 mm 3 m/s 769 mmHg 56%
    10:00 +10°C° 0 mm 3 m/s 769 mmHg 50%
    11:00 +12°C° 0 mm 3 m/s 769 mmHg 43%
    12:00 +13°C° 0 mm 3 m/s 769 mmHg 41%
    13:00 +13°C° 0 mm 3 m/s 769 mmHg 40%
    14:00 +15°C° 0 mm 2 m/s 768 mmHg 38%
    15:00 +12°C° 0 mm 3 m/s 769 mmHg 43%
    16:00 +11°C° 0 mm 3 m/s 769 mmHg 48%
    17:00 +9°C° 0 mm 3 m/s 769 mmHg 54%
    18:00 +8°C° 0 mm 3 m/s 769 mmHg 56%
    19:00 +8°C° 0 mm 3 m/s 770 mmHg 58%
    20:00 +7°C° 0 mm 3 m/s 770 mmHg 61%
    21:00 +7°C° 0 mm 3 m/s 770 mmHg 62%
    22:00 +5°C° 0 mm 3 m/s 770 mmHg 63%
    23:00 +5°C° 0 mm 3 m/s 770 mmHg 64%

    18 Dezembro, Segunda-feira

    Tempo Temperatura Precipitação Vento Pressão Humidade
    00:00 +5°C° 0 mm 3 m/s 770 mmHg 64%
    01:00 +4°C° 0 mm 3 m/s 770 mmHg 65%
    02:00 +4°C° 0 mm 3 m/s 770 mmHg 65%
    03:00 +4°C° 0 mm 4 m/s 770 mmHg 64%
    04:00 +4°C° 0 mm 4 m/s 770 mmHg 64%
    05:00 +4°C° 0 mm 4 m/s 770 mmHg 64%
    06:00 +5°C° 0 mm 4 m/s 770 mmHg 63%
    07:00 +5°C° 0 mm 4 m/s 770 mmHg 62%
    08:00 +6°C° 0 mm 4 m/s 771 mmHg 61%
    09:00 +8°C° 0 mm 4 m/s 771 mmHg 55%
    10:00 +11°C° 0 mm 4 m/s 771 mmHg 49%
    11:00 +13°C° 0 mm 4 m/s 771 mmHg 43%
    12:00 +13°C° 0 mm 4 m/s 770 mmHg 42%
    13:00 +14°C° 0 mm 4 m/s 770 mmHg 41%
    14:00 +14°C° 0 mm 4 m/s 769 mmHg 40%
    15:00 +13°C° 0 mm 4 m/s 769 mmHg 46%
    16:00 +11°C° 0 mm 4 m/s 769 mmHg 51%
    17:00 +10°C° 0 mm 4 m/s 769 mmHg 57%
    18:00 +8°C° 0 mm 4 m/s 770 mmHg 59%
    19:00 +7°C° 0 mm 4 m/s 770 mmHg 62%
    20:00 +7°C° 0 mm 4 m/s 770 mmHg 64%
    21:00 +6°C° 0 mm 4 m/s 770 mmHg 65%
    22:00 +6°C° 0 mm 4 m/s 770 mmHg 65%
    23:00 +6°C° 0 mm 4 m/s 770 mmHg 66%

    19 Dezembro, Terça-feira

    Tempo Temperatura Precipitação Vento Pressão Humidade
    00:00 +5°C° 0 mm 4 m/s 770 mmHg 66%
    01:00 +5°C° 0 mm 4 m/s 770 mmHg 66%
    02:00 +5°C° 0 mm 4 m/s 770 mmHg 66%
    03:00 +5°C° 0 mm 4 m/s 770 mmHg 66%
    04:00 +4°C° 0 mm 4 m/s 770 mmHg 66%
    05:00 +4°C° 0 mm 4 m/s 770 mmHg 66%
    06:00 +5°C° 0 mm 4 m/s 770 mmHg 64%
    07:00 +5°C° 0 mm 4 m/s 770 mmHg 62%
    08:00 +6°C° 0 mm 4 m/s 770 mmHg 60%
    09:00 +8°C° 0 mm 4 m/s 770 mmHg 54%
    10:00 +11°C° 0 mm 4 m/s 770 mmHg 47%
    11:00 +14°C° 0 mm 4 m/s 770 mmHg 41%
    12:00 +15°C° 0 mm 4 m/s 770 mmHg 41%
    13:00 +17°C° 0 mm 4 m/s 769 mmHg 41%
    14:00 +18°C° 0 mm 4 m/s 769 mmHg 41%
    15:00 +15°C° 0 mm 4 m/s 769 mmHg 47%
    16:00 +13°C° 0 mm 4 m/s 769 mmHg 53%
    17:00 +11°C° 0 mm 4 m/s 769 mmHg 59%
    18:00 +11°C° 0 mm 4 m/s 770 mmHg 62%
    19:00 +10°C° 0 mm 4 m/s 770 mmHg 65%
    20:00 +10°C° 0 mm 4 m/s 770 mmHg 68%
    21:00 +10°C° 0 mm 4 m/s 770 mmHg 71%
    22:00 +8°C° 0 mm 4 m/s 770 mmHg 74%
    23:00 +8°C° 0 mm 4 m/s 770 mmHg 77%

    20 Dezembro, Quarta-feira

    Tempo Temperatura Precipitação Vento Pressão Humidade
    00:00 +8°C° 0 mm 4 m/s 770 mmHg 76%
    01:00 +8°C° 0 mm 4 m/s 770 mmHg 76%
    02:00 +8°C° 0 mm 5 m/s 770 mmHg 76%
    03:00 +8°C° 0 mm 5 m/s 770 mmHg 76%
    04:00 +8°C° 0 mm 5 m/s 770 mmHg 76%
    05:00 +8°C° 0 mm 5 m/s 770 mmHg 76%
    06:00 +8°C° 0 mm 5 m/s 771 mmHg 75%
    07:00 +8°C° 0 mm 5 m/s 771 mmHg 73%
    08:00 +8°C° 0 mm 5 m/s 772 mmHg 72%
    09:00 +10°C° 0 mm 5 m/s 772 mmHg 65%
    10:00 +13°C° 0 mm 5 m/s 772 mmHg 59%
    11:00 +15°C° 0 mm 4 m/s 772 mmHg 52%
    12:00 +17°C° 0 mm 4 m/s 772 mmHg 51%
    13:00 +17°C° 0 mm 3 m/s 772 mmHg 50%
    14:00 +18°C° 0 mm 3 m/s 772 mmHg 48%
    15:00 +16°C° 0 mm 3 m/s 772 mmHg 54%
    16:00 +14°C° 0 mm 2 m/s 772 mmHg 61%
    17:00 +13°C° 0 mm 2 m/s 772 mmHg 67%
    18:00 +12°C° 0 mm 2 m/s 773 mmHg 70%
    19:00 +10°C° 0 mm 2 m/s 773 mmHg 72%
    20:00 +10°C° 0 mm 3 m/s 773 mmHg 75%
    21:00 +9°C° 0 mm 3 m/s 773 mmHg 76%
    22:00 +9°C° 0 mm 3 m/s 773 mmHg 77%
    23:00 +8°C° 0 mm 3 m/s 773 mmHg 78%
    Mostrar mais

    XHprof extension not loaded